CDG8895 ZSJN-ZGHA

Flight info

Callsign CDG8895
Flight time 1h 46m
Altitude 23600
Route EXUVU W4 IPNIT W37 GUSIV
Aircraft B738/M-SDE2E3FGHIRWXY/LB1

Departure

Time 2026-04-23 10:34
Airport Jinan Yaoqiang International Airport (ZSJN)

Arrival

Time 2026-04-23 12:21
Airport Changsha Huanghua International Airport (ZGHA)
Time Latitude Longitude Altitude Speed Heading
2026-04-23 09:59 36.85182 117.20887 83 ft 0 kts 269°
2026-04-23 10:24 36.85182 117.20903 83 ft 2 kts 270°
2026-04-23 10:25 36.85182 117.20922 83 ft 2 kts 269°
2026-04-23 10:25 36.85182 117.20941 83 ft 2 kts 269°
2026-04-23 10:25 36.85182 117.20953 83 ft 2 kts 266°
2026-04-23 10:25 36.85187 117.20970 83 ft 2 kts 233°
2026-04-23 10:26 36.85198 117.20983 83 ft 2 kts 207°
2026-04-23 10:26 36.85212 117.20988 83 ft 0 kts 183°
2026-04-23 10:26 36.85218 117.20988 83 ft 1 kts 178°
2026-04-23 10:26 36.85220 117.20988 83 ft 0 kts 179°
2026-04-23 10:28 36.85212 117.20988 83 ft 3 kts 179°
2026-04-23 10:28 36.85169 117.20985 83 ft 9 kts 184°
2026-04-23 10:29 36.85084 117.20985 83 ft 15 kts 180°
2026-04-23 10:29 36.84975 117.20985 83 ft 15 kts 180°
2026-04-23 10:29 36.84894 117.21005 83 ft 10 kts 128°
2026-04-23 10:29 36.84861 117.21091 83 ft 11 kts 114°
2026-04-23 10:30 36.84824 117.21191 83 ft 12 kts 114°
2026-04-23 10:30 36.84790 117.21288 83 ft 11 kts 104°
2026-04-23 10:30 36.84767 117.21365 83 ft 9 kts 146°
2026-04-23 10:30 36.84699 117.21373 83 ft 11 kts 178°
2026-04-23 10:31 36.84609 117.21374 83 ft 14 kts 180°
2026-04-23 10:31 36.84499 117.21375 83 ft 17 kts 179°
2026-04-23 10:31 36.84369 117.21373 83 ft 19 kts 180°
2026-04-23 10:31 36.84239 117.21374 83 ft 18 kts 180°
2026-04-23 10:32 36.84151 117.21375 83 ft 8 kts 172°
2026-04-23 10:32 36.84118 117.21431 83 ft 8 kts 93°
2026-04-23 10:32 36.84119 117.21491 83 ft 5 kts 89°
2026-04-23 10:32 36.84119 117.21537 83 ft 6 kts 89°
2026-04-23 10:33 36.84131 117.21594 83 ft 7 kts 39°
2026-04-23 10:33 36.84163 117.21600 83 ft 0 kts 358°
2026-04-23 10:33 36.84166 117.21600 83 ft 2 kts 358°
2026-04-23 10:33 36.84368 117.21599 83 ft 64 kts 360°
2026-04-23 10:34 36.85048 117.21600 83 ft 128 kts 359°
2026-04-23 10:34 36.86122 117.21600 116 ft 174 kts 359°
2026-04-23 10:34 36.87316 117.21639 686 ft 176 kts
2026-04-23 10:34 36.88564 117.21729 1300 ft 181 kts 360°
2026-04-23 10:35 36.89808 117.21755 1903 ft 179 kts 357°
2026-04-23 10:35 36.91061 117.21734 2310 ft 183 kts 356°
2026-04-23 10:35 36.92337 117.21703 2732 ft 185 kts 357°
2026-04-23 10:35 36.93634 117.21674 3154 ft 187 kts 358°
2026-04-23 10:36 36.94951 117.21647 3560 ft 195 kts 358°
2026-04-23 10:36 36.96352 117.21614 3931 ft 207 kts 358°
2026-04-23 10:36 36.97867 117.21583 4238 ft 224 kts 358°
2026-04-23 10:36 36.99453 117.21579 4640 ft 237 kts 359°
2026-04-23 10:37 37.01160 117.21590 4958 ft 255 kts 359°
2026-04-23 10:37 37.02975 117.21596 5421 ft 267 kts 359°
2026-04-23 10:37 37.04873 117.21600 5880 ft 279 kts 359°
2026-04-23 10:37 37.06834 117.21570 6504 ft 284 kts 356°
2026-04-23 10:38 37.08761 117.21125 7245 ft 283 kts 337°
2026-04-23 10:38 37.10385 117.19762 8026 ft 281 kts 311°
2026-04-23 10:38 37.11441 117.17679 8628 ft 283 kts 291°
2026-04-23 10:38 37.11921 117.15295 8886 ft 286 kts 277°
2026-04-23 10:39 37.12012 117.12814 8897 ft 285 kts 270°
2026-04-23 10:39 37.11976 117.10336 8900 ft 284 kts 269°
2026-04-23 10:39 37.11927 117.07842 8897 ft 283 kts 270°
2026-04-23 10:39 37.11898 117.05399 8897 ft 283 kts 270°
2026-04-23 10:40 37.11919 117.02923 8898 ft 285 kts 273°
2026-04-23 10:40 37.12075 117.00382 9417 ft 292 kts 277°
2026-04-23 10:40 37.12291 116.97940 10350 ft 287 kts 278°
2026-04-23 10:40 37.12530 116.95385 10741 ft 304 kts 278°
2026-04-23 10:41 37.12773 116.92692 11170 ft 319 kts 277°
2026-04-23 10:41 37.13016 116.89854 11577 ft 334 kts 277°
2026-04-23 10:41 37.13261 116.86903 11986 ft 349 kts 277°
2026-04-23 10:41 37.13490 116.83849 12593 ft 357 kts 274°
2026-04-23 10:42 37.13395 116.80724 13269 ft 365 kts 261°
2026-04-23 10:42 37.12648 116.77676 14088 ft 368 kts 250°
2026-04-23 10:42 37.11652 116.74734 14794 ft 374 kts 248°
2026-04-23 10:42 37.10565 116.71748 15543 ft 378 kts 248°
2026-04-23 10:43 37.09472 116.68760 16306 ft 381 kts 248°
2026-04-23 10:43 37.08392 116.65747 17057 ft 384 kts 249°
2026-04-23 10:43 37.07312 116.62672 17766 ft 387 kts 250°
2026-04-23 10:43 37.06235 116.59553 18443 ft 391 kts 250°
2026-04-23 10:44 37.05159 116.56408 19086 ft 396 kts 250°
2026-04-23 10:44 37.04083 116.53252 19745 ft 400 kts 250°
2026-04-23 10:44 37.02988 116.50041 20402 ft 403 kts 250°
2026-04-23 10:44 37.01876 116.46785 20997 ft 408 kts 249°
2026-04-23 10:45 37.00757 116.43513 21605 ft 411 kts 249°
2026-04-23 10:45 36.99626 116.40208 22196 ft 415 kts 249°
2026-04-23 10:45 36.98476 116.36856 22748 ft 419 kts 249°
2026-04-23 10:45 36.97326 116.33509 23282 ft 424 kts 249°
2026-04-23 10:46 36.96149 116.30085 23534 ft 429 kts 248°
2026-04-23 10:46 36.94971 116.26666 23526 ft 426 kts 248°
2026-04-23 10:46 36.93802 116.23277 23526 ft 425 kts 248°
2026-04-23 10:46 36.92634 116.19898 23527 ft 425 kts 248°
2026-04-23 10:47 36.91460 116.16503 23531 ft 425 kts 248°
2026-04-23 10:47 36.90300 116.13153 23538 ft 425 kts 248°
2026-04-23 10:47 36.89120 116.09747 23532 ft 425 kts 248°
2026-04-23 10:47 36.87950 116.06372 23521 ft 426 kts 248°
2026-04-23 10:48 36.86771 116.02975 23526 ft 425 kts 249°
2026-04-23 10:48 36.85605 115.99622 23533 ft 424 kts 249°
2026-04-23 10:48 36.84421 115.96220 23533 ft 425 kts 249°
2026-04-23 10:48 36.83258 115.92879 23531 ft 425 kts 249°
2026-04-23 10:49 36.82083 115.89510 23534 ft 425 kts 249°
2026-04-23 10:49 36.80896 115.86105 23528 ft 425 kts 249°
2026-04-23 10:49 36.79712 115.82716 23533 ft 425 kts 249°
2026-04-23 10:49 36.78534 115.79348 23530 ft 426 kts 249°
2026-04-23 10:50 36.77363 115.76006 23525 ft 425 kts 249°
2026-04-23 10:50 36.76177 115.72627 23531 ft 425 kts 249°
2026-04-23 10:50 36.74989 115.69248 23531 ft 425 kts 249°
2026-04-23 10:50 36.73809 115.65897 23526 ft 425 kts 249°
2026-04-23 10:51 36.72618 115.62517 23535 ft 425 kts 249°
2026-04-23 10:51 36.71431 115.59150 23530 ft 425 kts 249°
2026-04-23 10:51 36.70252 115.55810 23526 ft 425 kts 249°
2026-04-23 10:51 36.69055 115.52424 23531 ft 425 kts 249°
2026-04-23 10:52 36.67866 115.49063 23524 ft 425 kts 249°
2026-04-23 10:52 36.66689 115.45740 23526 ft 424 kts 249°
2026-04-23 10:52 36.65483 115.42342 23528 ft 424 kts 249°
2026-04-23 10:52 36.64294 115.38991 23523 ft 425 kts 249°
2026-04-23 10:53 36.63104 115.35643 23525 ft 424 kts 249°
2026-04-23 10:53 36.61919 115.32310 23524 ft 425 kts 248°
2026-04-23 10:53 36.60719 115.28936 23533 ft 425 kts 248°
2026-04-23 10:53 36.59517 115.25562 23522 ft 425 kts 248°
2026-04-23 10:54 36.58316 115.22233 23526 ft 425 kts 247°
2026-04-23 10:54 36.56964 115.18984 23524 ft 426 kts 241°
2026-04-23 10:54 36.55208 115.16007 23522 ft 429 kts 230°
2026-04-23 10:54 36.52985 115.13493 23526 ft 432 kts 219°
2026-04-23 10:55 36.50480 115.11485 23528 ft 434 kts 211°
2026-04-23 10:55 36.47797 115.09728 23525 ft 435 kts 208°
2026-04-23 10:55 36.45059 115.08086 23527 ft 436 kts 207°
2026-04-23 10:55 36.42328 115.06517 23535 ft 436 kts 206°
2026-04-23 10:56 36.39548 115.04954 23539 ft 436 kts 205°
2026-04-23 10:56 36.36706 115.03657 23538 ft 438 kts 198°
2026-04-23 10:56 36.33731 115.02776 23534 ft 439 kts 192°
2026-04-23 10:56 36.30705 115.02206 23539 ft 439 kts 188°
2026-04-23 10:57 36.27675 115.01804 23537 ft 441 kts 187°
2026-04-23 10:57 36.24641 115.01484 23538 ft 439 kts 186°
2026-04-23 10:57 36.21590 115.01199 23538 ft 439 kts 185°
2026-04-23 10:57 36.18548 115.00923 23538 ft 440 kts 185°
2026-04-23 10:58 36.15495 115.00645 23537 ft 440 kts 185°
2026-04-23 10:58 36.12420 115.00357 23545 ft 440 kts 186°
2026-04-23 10:58 36.09383 115.00066 23547 ft 441 kts 186°
2026-04-23 10:58 36.06298 114.99764 23549 ft 442 kts 186°
2026-04-23 10:59 36.03236 114.99460 23548 ft 441 kts 186°
2026-04-23 10:59 36.00212 114.99157 23543 ft 441 kts 186°
2026-04-23 10:59 35.97128 114.98846 23549 ft 440 kts 186°
2026-04-23 10:59 35.94099 114.98540 23546 ft 439 kts 186°
2026-04-23 11:00 35.91034 114.98229 23549 ft 438 kts 186°
2026-04-23 11:00 35.88020 114.97922 23550 ft 437 kts 186°
2026-04-23 11:00 35.84972 114.97613 23552 ft 437 kts 186°
2026-04-23 11:00 35.81958 114.97307 23550 ft 437 kts 186°
2026-04-23 11:01 35.78904 114.96997 23554 ft 438 kts 186°
2026-04-23 11:01 35.75889 114.96691 23561 ft 438 kts 186°
2026-04-23 11:01 35.72822 114.96381 23556 ft 439 kts 186°
2026-04-23 11:01 35.69807 114.96076 23556 ft 439 kts 186°
2026-04-23 11:02 35.66766 114.95770 23553 ft 439 kts 186°
2026-04-23 11:02 35.63716 114.95462 23557 ft 439 kts 186°
2026-04-23 11:02 35.60654 114.95153 23558 ft 438 kts 186°
2026-04-23 11:02 35.57636 114.94850 23557 ft 437 kts 186°
2026-04-23 11:03 35.54601 114.94545 23562 ft 437 kts 186°
2026-04-23 11:03 35.51548 114.94237 23562 ft 437 kts 186°
2026-04-23 11:03 35.48533 114.93934 23567 ft 436 kts 186°
2026-04-23 11:03 35.45513 114.93630 23568 ft 437 kts 186°
2026-04-23 11:04 35.42466 114.93324 23571 ft 437 kts 186°
2026-04-23 11:04 35.39431 114.93019 23571 ft 437 kts 186°
2026-04-23 11:04 35.36422 114.92718 23572 ft 437 kts 186°
2026-04-23 11:04 35.33356 114.92411 23577 ft 437 kts 186°
2026-04-23 11:05 35.30333 114.92108 23573 ft 437 kts 186°
2026-04-23 11:05 35.27298 114.91805 23573 ft 437 kts 186°
2026-04-23 11:05 35.24260 114.91502 23576 ft 436 kts 186°
2026-04-23 11:05 35.21229 114.91200 23580 ft 436 kts 186°
2026-04-23 11:06 35.15179 114.90596 23579 ft 436 kts 186°
2026-04-23 11:06 35.12160 114.90295 23583 ft 435 kts 186°
2026-04-23 11:06 35.09119 114.89993 23585 ft 436 kts 186°
2026-04-23 11:07 35.06127 114.89695 23582 ft 437 kts 186°
2026-04-23 11:07 35.03100 114.89394 23581 ft 435 kts 186°
2026-04-23 11:07 35.00087 114.89095 23583 ft 435 kts 186°
2026-04-23 11:07 34.97065 114.88796 23586 ft 435 kts 187°
2026-04-23 11:08 34.94036 114.88495 23591 ft 435 kts 187°
2026-04-23 11:08 34.91011 114.88196 23593 ft 435 kts 187°
2026-04-23 11:08 34.87977 114.87895 23592 ft 435 kts 186°
2026-04-23 11:08 34.84967 114.87597 23591 ft 435 kts 187°
2026-04-23 11:09 34.81982 114.87302 23589 ft 434 kts 187°
2026-04-23 11:09 34.78955 114.87002 23590 ft 434 kts 187°
2026-04-23 11:09 34.75927 114.86703 23591 ft 435 kts 187°
2026-04-23 11:09 34.72900 114.86403 23588 ft 434 kts 187°
2026-04-23 11:10 34.69920 114.86110 23589 ft 434 kts 187°
2026-04-23 11:10 34.66891 114.85812 23593 ft 434 kts 187°
2026-04-23 11:10 34.63868 114.85513 23591 ft 434 kts 187°
2026-04-23 11:10 34.60872 114.85217 23592 ft 434 kts 187°
2026-04-23 11:11 34.57845 114.84920 23592 ft 433 kts 187°
2026-04-23 11:11 34.54837 114.84625 23592 ft 433 kts 187°
2026-04-23 11:11 34.51866 114.84335 23593 ft 432 kts 187°
2026-04-23 11:11 34.48869 114.84041 23597 ft 432 kts 187°
2026-04-23 11:12 34.45860 114.83746 23598 ft 432 kts 187°
2026-04-23 11:12 34.42854 114.83451 23596 ft 432 kts 187°
2026-04-23 11:12 34.39864 114.83159 23595 ft 432 kts 187°
2026-04-23 11:12 34.36854 114.82864 23597 ft 433 kts 187°
2026-04-23 11:13 34.33847 114.82570 23594 ft 432 kts 187°
2026-04-23 11:13 34.30887 114.82282 23592 ft 431 kts 187°
2026-04-23 11:13 34.27887 114.81988 23590 ft 431 kts 187°
2026-04-23 11:13 34.24890 114.81696 23586 ft 430 kts 187°
2026-04-23 11:14 34.21878 114.81403 23586 ft 431 kts 187°
2026-04-23 11:14 34.18887 114.81111 23587 ft 431 kts 187°
2026-04-23 11:14 34.15929 114.80823 23587 ft 430 kts 187°
2026-04-23 11:14 34.12953 114.80536 23587 ft 430 kts 187°
2026-04-23 11:15 34.09964 114.80248 23587 ft 430 kts 187°
2026-04-23 11:15 34.06978 114.79961 23587 ft 430 kts 187°
2026-04-23 11:15 34.03994 114.79675 23588 ft 430 kts 187°
2026-04-23 11:15 34.01008 114.79388 23588 ft 430 kts 187°
2026-04-23 11:16 33.98020 114.79101 23588 ft 429 kts 187°
2026-04-23 11:16 33.95044 114.78816 23587 ft 430 kts 187°
2026-04-23 11:16 33.92036 114.78528 23588 ft 430 kts 187°
2026-04-23 11:16 33.89049 114.78242 23589 ft 429 kts 187°
2026-04-23 11:17 33.86074 114.77956 23589 ft 430 kts 187°
2026-04-23 11:17 33.83050 114.77666 23590 ft 430 kts 187°
2026-04-23 11:17 33.80054 114.77372 23587 ft 429 kts 187°
2026-04-23 11:17 33.77082 114.77076 23589 ft 430 kts 187°
2026-04-23 11:18 33.74113 114.76778 23591 ft 430 kts 188°
2026-04-23 11:18 33.71114 114.76475 23592 ft 430 kts 187°
2026-04-23 11:18 33.68160 114.76183 23590 ft 430 kts 188°
2026-04-23 11:18 33.65169 114.75899 23593 ft 429 kts 187°
2026-04-23 11:19 33.62203 114.75625 23595 ft 429 kts 188°
2026-04-23 11:19 33.59207 114.75352 23596 ft 429 kts 187°
2026-04-23 11:19 33.56235 114.75070 23597 ft 429 kts 188°
2026-04-23 11:19 33.53250 114.74771 23601 ft 429 kts 188°
2026-04-23 11:20 33.50302 114.74467 23598 ft 429 kts 188°
2026-04-23 11:20 33.47319 114.74155 23604 ft 428 kts 188°
2026-04-23 11:20 33.44332 114.73852 23608 ft 429 kts 188°
2026-04-23 11:20 33.41346 114.73557 23601 ft 430 kts 188°
2026-04-23 11:21 33.38397 114.73272 23605 ft 428 kts 188°
2026-04-23 11:21 33.35414 114.72985 23614 ft 429 kts 188°
2026-04-23 11:21 33.32429 114.72698 23608 ft 429 kts 188°
2026-04-23 11:21 33.29476 114.72415 23614 ft 427 kts 188°
2026-04-23 11:22 33.26510 114.72131 23615 ft 427 kts 188°
2026-04-23 11:22 33.23533 114.71845 23614 ft 426 kts 188°
2026-04-23 11:22 33.20573 114.71560 23619 ft 427 kts 188°
2026-04-23 11:22 33.17604 114.71272 23616 ft 427 kts 189°
2026-04-23 11:23 33.14644 114.70980 23620 ft 426 kts 189°
2026-04-23 11:23 33.11688 114.70688 23618 ft 427 kts 189°
2026-04-23 11:23 33.08718 114.70393 23617 ft 427 kts 189°
2026-04-23 11:23 33.05776 114.70102 23620 ft 427 kts 189°
2026-04-23 11:24 33.02812 114.69809 23621 ft 427 kts 189°
2026-04-23 11:24 32.99834 114.69515 23619 ft 428 kts 189°
2026-04-23 11:24 32.96871 114.69222 23614 ft 428 kts 189°
2026-04-23 11:24 32.93937 114.68934 23618 ft 426 kts 189°
2026-04-23 11:25 32.90985 114.68645 23624 ft 426 kts 189°
2026-04-23 11:25 32.88002 114.68351 23623 ft 426 kts 189°
2026-04-23 11:25 32.85074 114.68067 23624 ft 425 kts 189°
2026-04-23 11:25 32.82122 114.67786 23621 ft 425 kts 189°
2026-04-23 11:26 32.79158 114.67507 23623 ft 425 kts 189°
2026-04-23 11:26 32.76216 114.67231 23622 ft 426 kts 189°
2026-04-23 11:26 32.73268 114.66955 23623 ft 425 kts 189°
2026-04-23 11:26 32.70314 114.66677 23623 ft 426 kts 189°
2026-04-23 11:27 32.67354 114.66399 23624 ft 426 kts 189°
2026-04-23 11:27 32.64372 114.66119 23621 ft 426 kts 189°
2026-04-23 11:27 32.61437 114.65843 23620 ft 425 kts 189°
2026-04-23 11:27 32.58464 114.65565 23621 ft 424 kts 189°
2026-04-23 11:28 32.55542 114.65290 23624 ft 424 kts 189°
2026-04-23 11:28 32.52616 114.65016 23623 ft 424 kts 189°
2026-04-23 11:28 32.49663 114.64739 23624 ft 424 kts 189°
2026-04-23 11:28 32.46709 114.64462 23623 ft 424 kts 189°
2026-04-23 11:29 32.43745 114.64182 23623 ft 423 kts 189°
2026-04-23 11:29 32.40837 114.63909 23623 ft 423 kts 189°
2026-04-23 11:29 32.37887 114.63633 23624 ft 422 kts 189°
2026-04-23 11:29 32.34970 114.63354 23625 ft 423 kts 189°
2026-04-23 11:30 32.32023 114.63068 23626 ft 424 kts 189°
2026-04-23 11:30 32.29075 114.62779 23624 ft 423 kts 189°
2026-04-23 11:30 32.26166 114.62494 23623 ft 422 kts 190°
2026-04-23 11:30 32.23222 114.62206 23625 ft 421 kts 190°
2026-04-23 11:31 32.20288 114.61920 23626 ft 422 kts 190°
2026-04-23 11:31 32.17384 114.61636 23629 ft 423 kts 190°
2026-04-23 11:31 32.14432 114.61349 23626 ft 422 kts 190°
2026-04-23 11:31 32.11493 114.61063 23624 ft 422 kts 190°
2026-04-23 11:32 32.08596 114.60783 23625 ft 422 kts 190°
2026-04-23 11:32 32.05656 114.60497 23626 ft 423 kts 190°
2026-04-23 11:32 32.02723 114.60212 23626 ft 422 kts 190°
2026-04-23 11:32 31.99778 114.59927 23625 ft 422 kts 190°
2026-04-23 11:33 31.96841 114.59644 23626 ft 422 kts 190°
2026-04-23 11:33 31.93919 114.59362 23623 ft 422 kts 190°
2026-04-23 11:33 31.90974 114.59077 23623 ft 421 kts 190°
2026-04-23 11:33 31.88061 114.58797 23623 ft 421 kts 190°
2026-04-23 11:34 31.85146 114.58516 23625 ft 421 kts 190°
2026-04-23 11:34 31.82208 114.58233 23627 ft 421 kts 190°
2026-04-23 11:34 31.79284 114.57951 23625 ft 421 kts 190°
2026-04-23 11:34 31.76354 114.57668 23624 ft 420 kts 190°
2026-04-23 11:35 31.73455 114.57390 23617 ft 421 kts 190°
2026-04-23 11:35 31.70521 114.57107 23627 ft 422 kts 190°
2026-04-23 11:35 31.67592 114.56825 23620 ft 421 kts 190°
2026-04-23 11:35 31.64655 114.56543 23621 ft 421 kts 190°
2026-04-23 11:36 31.61746 114.56264 23625 ft 422 kts 190°
2026-04-23 11:36 31.58825 114.55984 23621 ft 421 kts 190°
2026-04-23 11:36 31.55901 114.55705 23617 ft 421 kts 191°
2026-04-23 11:36 31.52961 114.55424 23621 ft 421 kts 191°
2026-04-23 11:37 31.50040 114.55145 23619 ft 421 kts 191°
2026-04-23 11:37 31.47112 114.54866 23622 ft 421 kts 190°
2026-04-23 11:37 31.44201 114.54588 23621 ft 421 kts 190°
2026-04-23 11:37 31.41214 114.54303 23621 ft 421 kts 190°
2026-04-23 11:38 31.38303 114.54026 23614 ft 420 kts 191°
2026-04-23 11:38 31.35362 114.53746 23622 ft 422 kts 191°
2026-04-23 11:38 31.32455 114.53469 23621 ft 421 kts 191°
2026-04-23 11:38 31.29506 114.53186 23618 ft 422 kts 191°
2026-04-23 11:39 31.26619 114.52786 23615 ft 417 kts 195°
2026-04-23 11:39 31.23799 114.52027 23617 ft 411 kts 202°
2026-04-23 11:39 31.21107 114.50910 23619 ft 408 kts 207°
2026-04-23 11:39 31.18515 114.49602 23618 ft 406 kts 210°
2026-04-23 11:40 31.15943 114.48188 23616 ft 404 kts 211°
2026-04-23 11:40 31.13433 114.46764 23621 ft 405 kts 212°
2026-04-23 11:40 31.10868 114.45298 23616 ft 406 kts 212°
2026-04-23 11:40 31.08342 114.43861 23607 ft 404 kts 212°
2026-04-23 11:41 31.05777 114.42413 23604 ft 404 kts 211°
2026-04-23 11:41 31.03249 114.40994 23611 ft 406 kts 211°
2026-04-23 11:41 31.00713 114.39576 23609 ft 406 kts 211°
2026-04-23 11:41 30.98149 114.38152 23608 ft 407 kts 211°
2026-04-23 11:42 30.95586 114.36732 23603 ft 406 kts 211°
2026-04-23 11:42 30.93023 114.35315 23604 ft 407 kts 211°
2026-04-23 11:42 30.90472 114.33922 23609 ft 408 kts 210°
2026-04-23 11:42 30.87866 114.32538 23607 ft 407 kts 210°
2026-04-23 11:43 30.85275 114.31183 23604 ft 408 kts 209°
2026-04-23 11:43 30.82707 114.29848 23611 ft 409 kts 209°
2026-04-23 11:43 30.80108 114.28496 23606 ft 406 kts 210°
2026-04-23 11:43 30.77545 114.27136 23609 ft 405 kts 210°
2026-04-23 11:44 30.74960 114.25738 23606 ft 407 kts 210°
2026-04-23 11:44 30.72416 114.24353 23605 ft 406 kts 211°
2026-04-23 11:44 30.69866 114.22961 23608 ft 407 kts 211°
2026-04-23 11:44 30.67302 114.21562 23604 ft 408 kts 211°
2026-04-23 11:45 30.64721 114.20156 23611 ft 408 kts 211°
2026-04-23 11:45 30.62132 114.18749 23612 ft 408 kts 211°
2026-04-23 11:45 30.59556 114.17351 23604 ft 408 kts 211°
2026-04-23 11:45 30.56992 114.15963 23607 ft 408 kts 211°
2026-04-23 11:46 30.54406 114.14563 23606 ft 407 kts 210°
2026-04-23 11:46 30.51841 114.13175 23610 ft 408 kts 211°
2026-04-23 11:46 30.49274 114.11787 23608 ft 410 kts 211°
2026-04-23 11:46 30.46670 114.10381 23605 ft 408 kts 211°
2026-04-23 11:47 30.44116 114.09003 23607 ft 409 kts 211°
2026-04-23 11:47 30.41530 114.07606 23610 ft 409 kts 211°
2026-04-23 11:47 30.38959 114.06221 23604 ft 408 kts 210°
2026-04-23 11:47 30.36398 114.04842 23608 ft 408 kts 211°
2026-04-23 11:48 30.33817 114.03451 23603 ft 408 kts 211°
2026-04-23 11:48 30.31233 114.02059 23610 ft 409 kts 210°
2026-04-23 11:48 30.28645 114.00668 23609 ft 409 kts 211°
2026-04-23 11:48 30.26049 113.99272 23604 ft 409 kts 211°
2026-04-23 11:49 30.23468 113.97887 23604 ft 410 kts 211°
2026-04-23 11:49 30.20888 113.96503 23608 ft 411 kts 210°
2026-04-23 11:49 30.18316 113.95128 23608 ft 410 kts 211°
2026-04-23 11:49 30.15701 113.93728 23612 ft 411 kts 210°
2026-04-23 11:50 30.13119 113.92348 23609 ft 409 kts 211°
2026-04-23 11:50 30.10512 113.90955 23618 ft 410 kts 211°
2026-04-23 11:50 30.07918 113.89570 23619 ft 409 kts 211°
2026-04-23 11:50 30.05349 113.88199 23623 ft 409 kts 210°
2026-04-23 11:51 30.02769 113.86821 23627 ft 410 kts 211°
2026-04-23 11:51 30.00169 113.85433 23622 ft 410 kts 211°
2026-04-23 11:51 29.97595 113.84062 23615 ft 409 kts 211°
2026-04-23 11:51 29.95017 113.82690 23614 ft 408 kts 211°
2026-04-23 11:52 29.92400 113.81297 23625 ft 410 kts 211°
2026-04-23 11:52 29.89780 113.79971 23624 ft 412 kts 208°
2026-04-23 11:52 29.87079 113.78891 23618 ft 417 kts 201°
2026-04-23 11:52 29.84196 113.78219 23619 ft 424 kts 194°
2026-04-23 11:53 29.81236 113.77839 23624 ft 425 kts 191°
2026-04-23 11:53 29.78285 113.77608 23630 ft 427 kts 189°
2026-04-23 11:53 29.75299 113.77436 23625 ft 426 kts 189°
2026-04-23 11:53 29.72355 113.77286 23626 ft 427 kts 189°
2026-04-23 11:54 29.69360 113.77129 23614 ft 427 kts 189°
2026-04-23 11:54 29.66405 113.76962 23635 ft 427 kts 189°
2026-04-23 11:54 29.63430 113.76781 23615 ft 426 kts 189°
2026-04-23 11:54 29.60480 113.76595 23622 ft 425 kts 190°
2026-04-23 11:55 29.57482 113.76396 23631 ft 427 kts 190°
2026-04-23 11:55 29.54524 113.76196 23622 ft 426 kts 190°
2026-04-23 11:55 29.51584 113.75995 23632 ft 426 kts 190°
2026-04-23 11:55 29.48627 113.75790 23624 ft 426 kts 190°
2026-04-23 11:56 29.45648 113.75584 23621 ft 425 kts 190°
2026-04-23 11:56 29.42708 113.75381 23628 ft 425 kts 190°
2026-04-23 11:56 29.39749 113.75173 23631 ft 426 kts 190°
2026-04-23 11:56 29.36785 113.74966 23617 ft 427 kts 190°
2026-04-23 11:57 29.33796 113.74760 23622 ft 426 kts 190°
2026-04-23 11:57 29.30834 113.74557 23630 ft 427 kts 190°
2026-04-23 11:57 29.27859 113.74352 23625 ft 426 kts 190°
2026-04-23 11:57 29.24891 113.74146 23622 ft 426 kts 191°
2026-04-23 11:58 29.21924 113.73973 23621 ft 427 kts 189°
2026-04-23 11:58 29.18914 113.73953 23622 ft 430 kts 186°
2026-04-23 11:58 29.15925 113.74037 23622 ft 430 kts 185°
2026-04-23 11:58 29.12937 113.74167 23630 ft 430 kts 185°
2026-04-23 11:59 29.09948 113.74304 23624 ft 431 kts 185°
2026-04-23 11:59 29.06923 113.74439 23621 ft 428 kts 185°
2026-04-23 11:59 29.03944 113.74560 23625 ft 430 kts 185°
2026-04-23 11:59 29.00939 113.74670 23608 ft 430 kts 185°
2026-04-23 12:00 28.97947 113.74774 23618 ft 429 kts 186°
2026-04-23 12:00 28.94961 113.74872 23615 ft 430 kts 186°
2026-04-23 12:00 28.91976 113.74966 23601 ft 428 kts 186°
2026-04-23 12:00 28.88997 113.75055 23619 ft 428 kts 186°
2026-04-23 12:01 28.86006 113.75141 23619 ft 429 kts 186°
2026-04-23 12:01 28.83034 113.75227 23602 ft 419 kts 186°
2026-04-23 12:01 28.80166 113.75323 23603 ft 401 kts 186°
2026-04-23 12:01 28.77416 113.75417 23479 ft 387 kts 187°
2026-04-23 12:02 28.74768 113.75500 23176 ft 380 kts 187°
2026-04-23 12:02 28.72094 113.75504 22749 ft 387 kts 190°
2026-04-23 12:02 28.69377 113.75347 22225 ft 390 kts 191°
2026-04-23 12:02 28.66696 113.75126 21679 ft 387 kts 192°
2026-04-23 12:03 28.64006 113.74887 21149 ft 384 kts 192°
2026-04-23 12:03 28.61349 113.74654 20608 ft 382 kts 192°
2026-04-23 12:03 28.58723 113.74429 20067 ft 380 kts 191°
2026-04-23 12:03 28.56080 113.74212 19522 ft 378 kts 191°
2026-04-23 12:04 28.53464 113.74004 18975 ft 377 kts 191°
2026-04-23 12:04 28.50847 113.73800 18417 ft 374 kts 190°
2026-04-23 12:04 28.48249 113.73602 17886 ft 372 kts 190°
2026-04-23 12:04 28.45670 113.73410 17349 ft 371 kts 189°
2026-04-23 12:05 28.43134 113.73222 16813 ft 369 kts 189°
2026-04-23 12:05 28.40573 113.73032 16272 ft 367 kts 189°
2026-04-23 12:05 28.37994 113.72845 15732 ft 366 kts 189°
2026-04-23 12:05 28.35465 113.72662 15202 ft 364 kts 189°
2026-04-23 12:06 28.32936 113.72477 14667 ft 363 kts 188°
2026-04-23 12:06 28.30413 113.72295 14134 ft 361 kts 188°
2026-04-23 12:06 28.25437 113.71940 13090 ft 358 kts 188°
2026-04-23 12:07 28.22945 113.71761 12611 ft 355 kts 187°
2026-04-23 12:07 28.20511 113.71587 12348 ft 346 kts 187°
2026-04-23 12:07 28.18146 113.71418 12231 ft 332 kts 187°
2026-04-23 12:07 28.15886 113.71256 12050 ft 322 kts 187°
2026-04-23 12:08 28.13672 113.71094 11681 ft 320 kts 187°
2026-04-23 12:08 28.11439 113.70919 11281 ft 318 kts 188°
2026-04-23 12:08 28.09256 113.70729 11156 ft 307 kts 188°
2026-04-23 12:08 28.07151 113.70535 10906 ft 301 kts 188°
2026-04-23 12:09 28.05089 113.70252 10560 ft 297 kts 195°
2026-04-23 12:09 28.03179 113.69466 10219 ft 288 kts 217°
2026-04-23 12:09 28.01804 113.67904 9893 ft 275 kts 244°
2026-04-23 12:09 28.01129 113.65955 9555 ft 266 kts 263°
2026-04-23 12:10 28.00904 113.63908 9219 ft 262 kts 270°
2026-04-23 12:10 28.00802 113.61861 8888 ft 260 kts 272°
2026-04-23 12:10 28.00725 113.59828 8559 ft 259 kts 272°
2026-04-23 12:10 28.00642 113.57788 8229 ft 258 kts 271°
2026-04-23 12:11 28.00552 113.55782 7899 ft 257 kts 271°
2026-04-23 12:11 28.00369 113.52143 7316 ft 264 kts 268°
2026-04-23 12:11 27.99781 113.49410 6859 ft 272 kts 252°
2026-04-23 12:12 27.99047 113.47444 6517 ft 272 kts 250°
2026-04-23 12:12 27.98283 113.45507 6174 ft 271 kts 250°
2026-04-23 12:12 27.97539 113.43548 5860 ft 269 kts 251°
2026-04-23 12:12 27.96839 113.41637 5736 ft 259 kts 251°
2026-04-23 12:13 27.96176 113.39784 5658 ft 248 kts 252°
2026-04-23 12:13 27.95545 113.37995 5586 ft 241 kts 252°
2026-04-23 12:13 27.94979 113.36243 5482 ft 235 kts 260°
2026-04-23 12:13 27.94755 113.34432 5216 ft 231 kts 271°
2026-04-23 12:14 27.94722 113.32638 4959 ft 229 kts 272°
2026-04-23 12:14 27.94703 113.31425 4787 ft 228 kts 272°
2026-04-23 12:14 27.94613 113.29057 4451 ft 227 kts 271°
2026-04-23 12:14 27.94542 113.27278 4294 ft 221 kts 274°
2026-04-23 12:15 27.94736 113.25622 4248 ft 205 kts 296°
2026-04-23 12:15 27.95578 113.24429 4201 ft 191 kts 331°
2026-04-23 12:15 27.96788 113.23917 4169 ft 183 kts 349°
2026-04-23 12:15 27.98020 113.23699 4078 ft 180 kts 354°
2026-04-23 12:16 27.99280 113.23572 3817 ft 181 kts 356°
2026-04-23 12:16 28.00541 113.23484 3561 ft 178 kts 357°
2026-04-23 12:16 28.01759 113.23400 3320 ft 174 kts 358°
2026-04-23 12:16 28.02572 113.23350 3149 ft 172 kts 358°
2026-04-23 12:17 28.03765 113.23283 2914 ft 169 kts 358°
2026-04-23 12:17 28.04923 113.23215 2703 ft 162 kts 358°
2026-04-23 12:17 28.06338 113.23128 2394 ft 146 kts 356°
2026-04-23 12:17 28.07015 113.23084 2263 ft 142 kts 357°
2026-04-23 12:18 28.08321 113.23005 2019 ft 143 kts 357°
2026-04-23 12:18 28.09323 113.22948 1822 ft 141 kts 357°
2026-04-23 12:18 28.09971 113.22907 1708 ft 140 kts 357°
2026-04-23 12:18 28.11291 113.22826 1449 ft 141 kts 357°
2026-04-23 12:19 28.11946 113.22787 1317 ft 142 kts 357°
2026-04-23 12:19 28.13267 113.22707 1065 ft 143 kts 358°
2026-04-23 12:19 28.14261 113.22644 885 ft 142 kts 358°
2026-04-23 12:19 28.15256 113.22582 663 ft 143 kts 358°
2026-04-23 12:20 28.16243 113.22524 493 ft 143 kts 358°
2026-04-23 12:20 28.17237 113.22466 304 ft 143 kts 358°
2026-04-23 12:20 28.18202 113.22411 227 ft 115 kts 356°
2026-04-23 12:20 28.18612 113.22383 227 ft 64 kts 358°
2026-04-23 12:21 28.18982 113.22360 226 ft 19 kts 356°
2026-04-23 12:21 28.19072 113.22348 226 ft 18 kts 345°
2026-04-23 12:21 28.19230 113.22273 227 ft 18 kts 335°
2026-04-23 12:21 28.19337 113.22201 226 ft 17 kts 329°
2026-04-23 12:22 28.19431 113.22147 226 ft 13 kts 342°
2026-04-23 12:22 28.19524 113.22135 226 ft 13 kts 355°
2026-04-23 12:22 28.19590 113.22130 226 ft 15 kts 356°
2026-04-23 12:22 28.19703 113.22123 226 ft 17 kts 357°
2026-04-23 12:23 28.19870 113.22113 226 ft 17 kts 356°
2026-04-23 12:23 28.19953 113.22108 226 ft 17 kts 356°
2026-04-23 12:23 28.20039 113.22101 226 ft 9 kts 345°
2026-04-23 12:23 28.20074 113.22018 226 ft 9 kts 266°
2026-04-23 12:24 28.20072 113.21968 226 ft 9 kts 266°
2026-04-23 12:24 28.20067 113.21850 226 ft 13 kts 268°
2026-04-23 12:24 28.20063 113.21773 226 ft 14 kts 266°
2026-04-23 12:24 28.20057 113.21662 226 ft 10 kts 266°
2026-04-23 12:25 28.20010 113.21623 226 ft 9 kts 179°
2026-04-23 12:25 28.19915 113.21629 226 ft 11 kts 176°
2026-04-23 12:25 28.19823 113.21635 226 ft 13 kts 177°
2026-04-23 12:25 28.19730 113.21640 226 ft 9 kts 176°
2026-04-23 12:26 28.19694 113.21601 226 ft 8 kts 270°
2026-04-23 12:26 28.19700 113.21561 226 ft 6 kts 282°
2026-04-23 12:26 28.19706 113.21527 226 ft 3 kts 279°
2026-04-23 12:26 28.19709 113.21510 226 ft 0 kts 279°
2026-04-23 12:27 28.19709 113.21509 226 ft 0 kts 279°